Location: Zilina
(0.0000°N, 18.7333°E)
Time: 05:52:14
(UTC+01:00)

Daily predictions for brighter satellites

Satellite Brightness Start Highest point End
(mag) Time Altitude Azimuth Time Altitude Azimuth Time Altitude Azimuth
ARIANE 5 R/B 4.5 02:59:26 77° SW 03:00:29 80° S 08:58:04 10° E
Ariane H10+ 4.4 03:30:19 84° WNW 03:30:42 87° N 03:36:49 10° E
BLOCK DM-SL R/B 4.4 03:30:21 83° WSW 03:30:43 86° S 04:01:10 10° E
BLOCK DM-SL R/B 4.4 03:30:21 83° WSW 03:30:43 86° S 04:01:11 10° E
BLOCK DM-SL R/B 4.4 03:30:21 83° WSW 03:30:44 86° S 04:01:10 10° E
BLOCK DM-SL R/B 4.4 03:30:22 83° WSW 03:30:44 86° S 04:01:10 10° E
BLOCK DM-SL R/B 4.4 03:30:21 83° WSW 03:30:44 86° S 04:01:11 10° E
Cosmos 2322 Rocket 4.2 03:29:51 10° SSE 03:34:26 25° ESE 03:39:00 10° NE
ATLAS 3B R/B 4.1 03:41:32 24° S 03:41:32 24° S 03:44:12 10° S
ARIANE 44P R/B 4.4 03:44:00 36° NE 03:44:00 36° NE 03:46:07 10° ENE
NOSS 3-2 (A) 4.0 03:44:31 82° W 03:44:46 83° WSW 03:53:05 10° SSE
Milstar 3 3.7 03:45:55 48° NNW 03:49:12 65° NNE 03:56:52 10° ESE
Atlas Centaur 2 2.3 04:03:36 49° ESE 04:03:36 49° ESE 04:06:53 10° ENE
ARIANE 5 R/B 3.6 04:05:47 24° E 04:05:47 24° E 04:06:41 10° E
ISS -1.2 04:06:56 21° ESE 04:06:56 21° ESE 04:08:55 10° ENE
ARIANE 5 R/B 3.5 04:08:30 40° NE 04:08:30 40° NE 04:10:11 10° ENE
SL-16 R/B 2.1 04:14:05 10° SSW 04:19:46 87° ESE 04:25:25 10° NNE
Delta 2 Rocket 4.2 04:19:43 45° WSW 04:22:08 78° NNW 04:30:20 10° ENE
Cosmos 967 Rocket 4.4 04:20:42 10° SSW 04:27:00 87° WNW 04:33:22 10° NNE
Cosmos 1825 3.5 04:33:37 27° SSW 04:33:37 27° SSW 04:35:31 10° S
CZ-2C R/B 3.3 04:28:56 10° NNE 04:33:57 52° ESE 04:38:59 10° S
Meteor 2-17 Rocket 4.3 04:30:34 10° SSW 04:36:32 65° W 04:42:30 10° N
Cosmos 2242 Rocket 3.7 04:32:32 10° S 04:37:04 79° E 04:41:37 10° N
deb Ariane 4.4 04:36:40 26° SSW 04:37:08 27° S 04:39:48 10° ESE
Cosmos 1441 Rocket 3.2 04:33:48 10° S 04:37:45 84° E 04:41:42 10° N
NOSS 3-2 (C) 4.4 04:35:00 29° WNW 04:38:54 46° WSW 04:46:43 10° S
Cosmos 1862 4.1 04:38:31 10° N 04:42:25 54° E 04:46:22 10° SSE
ARIANE 5 R/B 3.7 04:37:13 26° W 04:42:45 70° S 04:46:46 10° ESE
Cosmos 1605 Rocket 4.0 04:37:35 10° SSW 04:43:39 55° W 04:49:38 10° N
Cosmos 2227 Rocket 2.1 04:38:46 13° NNW 04:43:51 75° WSW 04:49:29 10° S
Meteor 1-28 Rocket 3.2 04:43:07 10° SSE 04:46:56 82° ENE 04:50:43 10° N
NOAA 6 4.0 04:42:17 10° N 04:47:19 61° WNW 04:52:22 10° SSW
Feng Yun 1-1 Rocket 4.2 04:41:53 10° N 04:47:34 71° WNW 04:53:25 10° SSW
GENESIS II 4.3 04:46:31 33° WSW 04:47:47 47° WNW 04:51:32 10° N
USA 215 3.6 04:47:43 10° SE 04:54:13 68° NE 05:00:43 10° NNW
PAYLOAD A 4.1 04:51:35 10° N 04:56:25 52° WNW 05:01:28 10° SSW
Cosmos 2297 Rocket 2.2 04:52:01 10° NNW 04:57:35 64° WSW 05:03:11 10° S
CENTAUR R/B 3.1 04:52:03 10° NNW 05:00:34 80° WSW 05:08:44 10° SSE
Spelda 3.6 04:59:43 28° WSW 05:00:41 49° S 05:04:11 10° ESE
IDEFIX/ARIANE 42P 2.8 04:57:29 10° N 05:02:21 42° WNW 05:07:14 10° SSW
Radarsat Rocket 4.2 04:57:10 10° N 05:03:19 62° WNW 05:10:19 10° SSW
ARIANE 5 R/B 3.8 05:01:54 15° WSW 05:06:24 61° S 05:52:08 10° E
Cosmos 1862 Rocket 3.8 05:04:24 10° SSW 05:08:30 44° W 05:12:37 10° NNW
ARIANE 44LP R/B 3.2 05:05:30 16° W 05:11:12 62° N 05:13:44 10° ENE
Cosmos 1461 3.4 05:10:07 10° SW 05:13:42 33° WNW 05:17:27 10° N
Cosmos 1606 2.7 05:10:46 10° S 05:14:39 88° E 05:18:28 10° N
Cosmos 2061 Rocket 4.3 05:09:26 10° S 05:15:41 73° E 05:21:51 10° N
COSMO-SKYMED 1 3.4 05:12:00 10° SSE 05:16:15 55° E 05:20:28 10° N
Cosmos 1459 Rocket 4.0 05:10:58 10° S 05:17:08 87° W 05:23:20 10° N
Cosmos 2173 Rocket 4.0 05:11:32 10° S 05:17:52 87° W 05:24:05 10° N
Cosmos 2322 Rocket 3.3 05:13:57 10° WSW 05:18:10 22° WNW 05:22:25 10° NNW
Cosmos 1802 Rocket 4.3 05:12:32 10° S 05:18:59 79° E 05:25:22 10° N
Ariane H10 3.2 05:18:53 12° WNW 05:21:46 45° N 05:31:16 10° E
Lacrosse 4 Rocket 2.3 05:20:59 10° S 05:25:01 52° ESE 05:28:58 10° NNE
Cosmos 2082 4.3 05:22:10 10° NW 05:27:18 35° WSW 05:32:27 10° S
Cosmos 2360 Rocket 2.3 05:21:50 10° SSW 05:27:22 56° WNW 05:32:53 10° N
Milstar 3 Cent rocket 4.4 05:25:33 10° NNW 05:27:38 12° N 05:30:02 10° NNE
Okean 1-7 3.9 05:23:30 10° S 05:27:40 54° E 05:31:50 10° NNE
EPKM 4.0 05:21:28 10° WNW 05:29:15 35° SW 05:31:48 10° SSE
Lacrosse 5 rocket 4.4 05:27:55 10° NE 05:29:37 12° ENE 05:31:21 10° E
Cosmos 1733 Rocket 3.4 05:25:15 10° N 05:29:38 71° E 05:34:03 10° S
ARIANE DEB (SPELDA) 4.0 05:26:30 10° W 05:30:13 69° S 05:50:37 10° E
Okean-O 3.9 05:29:12 10° NNW 05:32:17 19° WNW 05:35:23 10° WSW
Ariane H10 2.4 05:32:01 10° WSW 05:34:13 32° S 05:36:13 10° ESE
ARIANE 5 R/B 2.9 05:26:17 10° W 05:37:54 73° N 05:40:35 10° E
